Home   Weather   India   Badlapur   Past weeks
Flag for India

Past Weather in Badlapur, Maharashtra, India — Yesterday and Last 2 Weeks

Currently: 82 °F. Partly cloudy. (Weather station: Mumbai / Santacruz, India). See more current weather

Past Weather in Badlapur — Graph

°F

Badlapur Temperature Yesterday

Maximum temperature yesterday: 88 °F (at 12:00 pm)
Minimum temperature yesterday: 79 °F (at 5:30 am)
Average temperature yesterday: 84 °F

High & Low Weather Summary for the Past Weeks

 TemperatureHumidityPressure
High88 °F (Jul 11, 5:00 pm)100% (Jul 11, 2:00 am)29.74 "Hg (Jul 11, 2:00 am)
Low77 °F (Jul 13, 8:30 pm)62% (Jul 20, 6:00 pm)29.45 "Hg (Jul 12, 3:00 pm)
Average82 °F92%29.60 "Hg
* Reported Jul 11 1:30 am — Jul 26 2:00 am, Badlapur. Weather by CustomWeather, © 2021

Note: Actual official high and low records may vary slightly from our data, if they occured in-between our weather recording intervals... More about our weather records

Badlapur Weather History for the Previous 24 Hours

Scroll right to see more
 ConditionsComfort  
Time TempWeatherWind HumidityBarometerVisibility
2:00 am
Mon, Jul 26
82 °FPartly cloudy.14 mph89%29.62 "Hg1 mi
1:30 am82 °FPartly cloudy.10 mph94%29.62 "Hg1 mi
1:00 am82 °FPartly cloudy.12 mph89%29.65 "Hg1 mi
12:30 am82 °FPartly cloudy.8 mph89%29.65 "Hg1 mi
12:00 am82 °FPartly cloudy.9 mph89%29.65 "Hg1 mi
11:30 pm
Sun, Jul 25
82 °FPartly cloudy.14 mph94%29.65 "Hg1 mi
11:00 pm82 °FPartly cloudy.12 mph89%29.65 "Hg1 mi
10:30 pm84 °FPartly cloudy.8 mph84%29.65 "Hg2 mi
10:00 pm84 °FPartly cloudy.13 mph89%29.65 "Hg2 mi
9:30 pm82 °FPartly cloudy.13 mph94%29.65 "Hg2 mi
9:00 pm84 °FPartly cloudy.14 mph84%29.65 "Hg2 mi
8:30 pm84 °FPartly cloudy.14 mph84%29.65 "Hg2 mi
8:00 pm84 °FPartly cloudy.8 mph89%29.62 "Hg2 mi
7:30 pm84 °FBroken clouds.8 mph84%29.62 "Hg2 mi
7:00 pm84 °FBroken clouds.8 mph84%29.62 "Hg2 mi
6:30 pm84 °FBroken clouds.14 mph89%29.62 "Hg2 mi
6:00 pm84 °FBroken clouds.17 mph84%29.62 "Hg2 mi
5:30 pm84 °FBroken clouds.16 mph89%29.59 "Hg2 mi
5:00 pm84 °FBroken clouds.16 mph89%29.59 "Hg2 mi
4:30 pm84 °FBroken clouds.16 mph89%29.59 "Hg2 mi
4:00 pm86 °FLight rain. Broken clouds.12 mph84%29.62 "Hg1 mi
3:30 pm86 °FScattered showers. Broken clouds.12 mph84%29.62 "Hg1 mi
3:00 pm86 °FBroken clouds.12 mph84%29.62 "Hg2 mi
2:30 pm84 °FScattered showers. Broken clouds.12 mph89%29.62 "Hg1 mi
2:00 pm88 °FBroken clouds.12 mph79%29.62 "Hg2 mi
1:30 pm88 °FBroken clouds.21 mph79%29.62 "Hg2 mi
1:00 pm88 °FBroken clouds.23 mph75%29.65 "Hg2 mi
12:30 pm88 °FBroken clouds.23 mph79%29.65 "Hg2 mi
12:00 pm88 °FBroken clouds.18 mph79%29.65 "Hg2 mi
11:30 am86 °FBroken clouds.9 mph84%29.65 "Hg2 mi
11:00 am86 °FBroken clouds.9 mph84%29.65 "Hg2 mi
10:30 am86 °FBroken clouds.14 mph84%29.68 "Hg2 mi
10:00 am84 °FBroken clouds.8 mph89%29.68 "Hg2 mi
9:30 am84 °FBroken clouds.8 mph89%29.68 "Hg2 mi
9:00 am84 °FBroken clouds.8 mph89%29.68 "Hg1 mi
8:30 am84 °FBroken clouds.8 mph89%29.65 "Hg1 mi
8:00 am84 °FMore clouds than sun.10 mph89%29.65 "Hg1 mi
7:30 am84 °FMore clouds than sun.12 mph89%29.62 "Hg1 mi
7:00 am82 °FMore clouds than sun.8 mph94%29.62 "Hg1 mi
6:30 am82 °FMostly cloudy.8 mph100%29.62 "Hg1 mi
6:00 am81 °FPartly cloudy.13 mph100%29.62 "Hg1 mi
5:30 am79 °FLight rain. Partly cloudy.12 mph100%29.59 "Hg1 mi
5:00 am82 °FPartly cloudy.13 mph94%29.59 "Hg1 mi
4:30 am82 °FPartly cloudy.12 mph94%29.59 "Hg1 mi
4:00 am82 °FPartly cloudy.12 mph94%29.59 "Hg1 mi
3:30 am82 °FPartly cloudy.7 mph94%29.59 "Hg1 mi
3:00 am82 °FPartly cloudy.9 mph94%29.59 "Hg1 mi
2:30 am82 °FPartly cloudy.7 mph94%29.62 "Hg1 mi
2:00 am82 °FPartly cloudy.10 mph94%29.62 "Hg1 mi
Weather by CustomWeather, © 2021

See weather overview